Powrót do katalogu

STARLINK-6190

AktywnyŁącznośćVLEO
NORAD 56774·PAYLOAD·🇺🇸 United States

Wystrzelony May 31, 2023 z Vandenberg Space Force Base

Loading…

Następne Przeloty (najbliższe 24 godziny)

TLE

ŚwieżeSource: CelesTrak SupGP

Epoka: Sep 15, 2026, 02:34 UTC

1 56774C 23078H   26258.10743056 -.00045702  00000+0 -38297-2 0  2586
2 56774  69.9997 246.9609 0003816 268.7412 231.0574 14.98355269    19

Śledź STARLINK-6190 w czasie rzeczywistym z AllMySat

Download on the App Store